Thunder radar more information blitzortung!


Rain radar more information rain snow radar


Visit our other weather sites:

Template documentation
and downloads

And another site



There are no active watches, warnings or advisories

Select another period ( hide this area )

Units Period Custom range Directly to
Metric English Both
Daily Weekly Monthly Yearly
use both date-selectors for a custom range
previous Day
With this date

WeatherUnderground graphs for this period ( click here )


Daily Summary for Tuesday Sep 17 2019
Time Temp. ( °C ) Dew pt. ( °C ) Wind ( km/h ) from Gust ( km/h ) Pressure ( hPa ) Humid.( % ) Rainrate ( cm )
High29,6 20,3 14,8 North ( 100/188 ) 8,4 1016,1 90 -
Average21,6 16,9 1,6 Calm #122/186 0,6 1015,8 76 -
Low17,7 15,4 -   0,0 1013,4 48 -
Daily Tabular details for Tuesday Sep 17 2019
Time Temp. ( °C ) Dew pt. ( °C ) Wind ( km/h ) from Gust ( km/h ) Pressure ( hPa ) Humid.( % ) Rainrate ( cm )
00:00 20,8 16,0   Calm   1015,8 74 -
00:05 20,7 15,7   Calm   1015,8 73 -
00:10 20,7 15,7   Calm   1015,8 73 -
00:15 20,6 15,8   Calm   1015,8 74 -
00:20 20,5 15,7   Calm   1015,8 74 -
00:25 20,4 15,9   Calm   1015,8 75 -
00:30 20,4 15,8   Calm   1015,8 75 -
00:35 20,3 15,7   Calm   1015,8 75 -
00:40 20,2 15,8   Calm   1015,8 76 -
00:45 20,2 15,6   Calm   1015,5 75 -
00:50 20,1 15,7   Calm   1015,5 76 -
00:55 20,1 15,7   Calm   1015,8 76 -
01:00 20,1 15,7   Calm   1015,5 76 -
01:05 20,1 15,7   Calm   1015,8 76 -
01:10 20,0 15,7   Calm   1015,5 76 -
01:15 19,9 15,8   Calm   1015,5 77 -
01:20 19,9 16,0   Calm   1015,5 78 -
01:25 19,9 15,9   Calm   1015,5 78 -
01:30 19,8 16,1   Calm   1015,5 79 -
01:35 19,8 16,1   Calm   1015,5 79 -
01:40 19,7 16,0   Calm   1015,5 79 -
01:45 19,7 15,9   Calm   1015,5 79 -
01:50 19,6 15,9   Calm   1015,5 79 -
01:55 19,6 15,8   Calm   1015,5 79 -
02:00 19,5 15,8   Calm   1015,5 79 -
02:05 19,5 15,8   Calm   1015,5 79 -
02:10 19,5 15,6   Calm   1015,5 78 -
02:15 19,4 15,5   Calm   1015,1 78 -
02:20 19,4 15,5   Calm   1015,5 78 -
02:25 19,4 15,5   Calm   1015,1 78 -
02:30 19,4 15,7   Calm   1015,1 79 -
02:35 19,4 15,4   Calm   1015,1 78 -
02:40 19,4 15,7   Calm   1015,1 79 -
02:45 19,4 15,7   Calm   1015,1 79 -
02:50 19,3 15,8   Calm   1015,1 80 -
02:55 19,3 15,7   Calm   1015,1 80 -
03:00 19,2 15,9   Calm   1015,1 81 -
03:05 19,1 15,9   Calm   1015,1 82 -
03:10 19,1 16,1   Calm   1014,8 83 -
03:15 18,9 15,8   Calm   1014,8 82 -
03:20 18,9 15,6   Calm   1014,8 81 -
03:25 18,9 15,8   Calm   1014,8 82 -
03:30 18,9 15,6   Calm   1014,8 81 -
03:35 19,0 15,7   Calm   1015,1 81 -
03:40 19,0 15,7   Calm   1014,8 81 -
03:45 19,0 15,8   Calm   1014,8 82 -
03:50 19,0 15,8   Calm   1014,8 82 -
03:55 19,0 16,1   Calm   1014,8 83 -
04:00 18,9 16,2   Calm   1014,8 84 -
04:05 18,9 15,9   Calm   1014,4 83 -
04:10 18,9 15,9   Calm   1014,4 83 -
04:15 18,9 16,2   Calm   1014,4 84 -
04:20 18,9 16,2   Calm   1014,4 84 -
04:25 18,9 16,0   Calm   1014,4 83 -
04:30 19,0 15,8   Calm   1014,4 82 -
04:35 19,0 15,7   Calm   1014,4 81 -
04:40 19,0 15,7   Calm   1014,4 81 -
04:45 19,0 15,7   Calm   1014,4 81 -
04:50 18,9 15,8   Calm   1014,4 82 -
04:55 18,9 15,8   Calm   1014,4 82 -
05:00 18,9 15,7   Calm   1014,4 82 -
05:05 18,8 15,9   Calm   1014,4 83 -
05:10 18,8 15,7   Calm   1014,4 82 -
05:15 18,8 15,9   Calm   1014,4 83 -
05:20 18,8 15,7   Calm   1014,4 82 -
05:25 18,9 15,9   Calm   1014,8 83 -
05:30 18,9 15,9   Calm   1014,8 83 -
05:35 18,8 15,7   Calm   1014,8 82 -
05:40 18,8 15,9   Calm   1014,8 83 -
05:45 18,8 15,8   Calm   1014,8 83 -
05:50 18,7 15,6   Calm   1014,8 82 -
05:55 18,8 15,7   Calm   1014,8 82 -
06:00 18,8 15,5   Calm   1014,8 81 -
06:05 19,0 15,7   Calm   1014,8 81 -
06:10 19,1 15,6   Calm   1014,8 80 -
06:15 19,2 15,8   Calm   1014,8 81 -
06:20 19,2 16,3   Calm   1014,8 83 -
06:25 19,0 15,8   Calm   1014,8 82 -
06:30 18,8 15,9   Calm   1014,8 83 -
06:35 18,7 15,7   Calm   1014,8 83 -
06:40 18,6 15,8   Calm   1014,8 84 -
06:45 18,4 15,7   Calm   1015,1 84 -
06:50 18,4 15,6   Calm   1015,1 84 -
06:55 18,3 15,6   Calm   1015,1 84 -
07:00 18,3 15,7   Calm   1015,1 85 -
07:05 18,3 15,7   Calm   1015,1 85 -
07:10 18,4 15,9   Calm   1015,1 85 -
07:15 18,4 15,7   Calm   1015,5 84 -
07:20 18,4 15,8   Calm   1015,5 85 -
07:25 18,3 15,7   Calm   1015,5 85 -
07:30 18,2 15,7   Calm   1015,5 85 -
07:35 18,2 15,8   Calm   1015,5 86 -
07:40 18,1 15,7   Calm   1015,5 86 -
07:45 17,9 15,7   Calm   1015,5 87 -
07:50 17,8 15,7   Calm   1015,5 87 -
07:55 17,8 15,8   Calm   1015,5 88 -
08:00 17,8 15,8   Calm   1015,5 88 -
08:05 17,8 15,7   Calm   1015,5 87 -
08:10 17,9 15,7   Calm   1015,8 87 -
08:15 18,1 15,8   Calm   1015,5 87 -
08:20 18,1 15,7   Calm   1015,5 86 -
08:25 18,2 15,8 1,9 NNE   1015,5 86 -
08:30 18,3 16,1   Calm   1015,8 87 -
08:35 18,2 15,9   Calm   1015,8 87 -
08:40 18,0 16,0 1,9 NNE   1015,8 88 -
08:45 17,8 15,8   Calm   1015,8 88 -
08:50 17,7 15,9   Calm   1015,8 89 -
08:55 17,7 16,1   Calm   1015,8 90 -
09:00 17,8 16,1   Calm   1015,8 90 -
09:05 17,8 16,0   Calm   1015,8 89 -
09:10 17,9 16,1   Calm   1015,8 89 -
09:15 18,1 16,2   Calm   1015,8 89 -
09:20 18,2 16,3   Calm   1015,8 89 -
09:25 18,3 16,4   Calm   1015,8 89 -
09:30 18,3 16,5 1,6 NNE   1015,8 89 -
09:35 18,5 16,7   Calm   1015,8 89 -
09:40 18,6 16,6   Calm   1015,8 88 -
09:45 18,8 16,7   Calm   1015,8 88 -
09:50 19,0 16,9 1,9 NNE 0,5 1015,8 88 -
09:55 19,2 17,2   Calm   1015,8 88 -
10:00 19,5 17,3   Calm   1016,1 87 -
10:05 19,7 17,5 1,9 NNE 0,2 1016,1 87 -
10:10 19,9 17,7   Calm   1015,8 87 -
10:15 20,2 17,8   Calm   1015,8 86 -
10:20 20,4 17,8 1,9 NNE 0,6 1016,1 85 -
10:25 20,7 18,1   Calm   1016,1 85 -
10:30 21,0 18,2 1,6 NNE   1016,1 84 -
10:35 21,3 18,3   Calm   1015,8 83 -
10:40 21,7 18,7   Calm   1016,1 83 -
10:45 22,2 18,8 1,9 NNE 0,2 1016,1 81 -
10:50 22,7 18,7 1,9 NNE 0,5 1015,8 78 -
10:55 23,3 18,6 5,6 NNE 1,8 1015,8 75 -
11:00 23,7 18,8 3,7 North 2,6 1015,8 74 -
11:05 24,1 18,9 8,0 North 3,7 1015,8 73 -
11:10 24,4 19,2 1,9 North 1,0 1015,8 73 -
11:15 24,7 19,1 6,4 North 2,6 1015,8 71 -
11:20 24,9 18,8 5,6 North 0,8 1015,8 69 -
11:25 25,2 19,1 1,9 North 0,8 1015,8 69 -
11:30 25,4 19,1 3,2 North 0,8 1015,8 68 -
11:35 25,6 19,4 1,9 NNE 0,6 1015,8 69 -
11:40 25,7 19,4 1,9 North 0,8 1015,8 68 -
11:45 25,8 19,4 3,7 North 1,6 1015,8 68 -
11:50 25,8 19,4 5,6 North 1,1 1015,8 68 -
11:55 25,8 19,7 3,7 NW 0,5 1015,5 69 -
12:00 25,9 19,6 7,4 NW 3,4 1015,5 68 -
12:05 26,1 19,9 3,7 NW 1,4 1015,5 69 -
12:10 26,2 19,6 3,7 NW 1,0 1015,5 67 -
12:15 26,3 19,9 3,7 WNW 0,6 1015,5 68 -
12:20 26,4 19,6 4,8 WNW 0,3 1015,1 66 -
12:25 26,6 19,4 5,6 NW 2,4 1015,1 65 -
12:30 26,7 20,1 1,9 North 0,3 1015,1 67 -
12:35 26,9 20,3 1,6 North   1015,1 67 -
12:40 27,2 20,0 1,9 North 0,6 1014,8 65 -
12:45 27,4 19,8 8,0 North 3,5 1014,8 63 -
12:50 27,4 19,8 1,9 North 0,2 1014,8 63 -
12:55 27,7 19,4 3,7 North 1,0 1014,8 61 -
13:00 27,9 19,4 3,7 North 0,3 1014,8 60 -
13:05 28,2 19,4 1,9 NNE 0,8 1014,8 59 -
13:10 28,2 19,7 6,4 NNE 3,1 1014,8 60 -
13:15 28,0 18,9 5,6 North 2,9 1014,8 58 -
13:20 27,9 18,9 1,9 North 0,2 1014,4 58 -
13:25 28,1 19,8 3,2 North 0,8 1014,4 61 -
13:30 28,1 18,8 3,7 North 2,4 1014,4 57 -
13:35 27,9 18,6 5,6 North 3,9 1014,4 57 -
13:40 27,8 18,2 3,7 North 0,8 1014,4 56 -
13:45 27,9 18,6 3,7 North 1,0 1014,4 57 -
13:50 28,2 19,2 3,7 NNW 1,9 1014,1 58 -
13:55 28,4 18,2 7,4 NNW 4,2 1014,1 54 -
14:00 28,5 18,6 11,1 North 4,0 1014,1 55 -
14:05 28,7 18,2 3,7 NW 1,0 1014,1 53 -
14:10 28,8 18,3 6,4 West 4,2 1014,1 53 -
14:15 28,9 18,7 8,0 NW 3,1 1014,1 54 -
14:20 28,9 17,8 5,6 NNW 3,1 1014,1 51 -
14:25 29,1 18,8 5,6 North 2,4 1014,1 54 -
14:30 29,0 17,5 6,4 North 2,6 1014,1 50 -
14:35 29,0 17,8 5,6 NNW 3,2 1013,8 51 -
14:40 29,2 18,6 5,6 NNW 3,1 1013,8 53 -
14:45 29,2 18,0 13,0 North 1,1 1013,8 51 -
14:50 29,3 17,8 9,7 North 3,7 1013,8 50 -
14:55 29,2 18,3 8,0 North 3,4 1013,8 52 -
15:00 29,3 17,8 6,4 NNW 4,0 1013,4 50 -
15:05 29,5 17,3 5,6 NNW 4,2 1013,4 48 -
15:10 29,6 18,3 5,6 NW 3,2 1013,4 51 -
15:15 29,4 17,6 5,6 NNW 3,1 1013,4 49 -
15:20 29,4 17,3 14,8 North 8,4 1013,4 48 -
15:25 29,4 17,9 6,4 NNW 4,3 1013,4 50 -
Daily Summary for Tuesday Sep 17 2019
Time Temp. ( °C ) Dew pt. ( °C ) Wind ( km/h ) from Gust ( km/h ) Pressure ( hPa ) Humid.( % ) Rainrate ( cm )
High29,6 20,3 14,8 North ( 100/188 ) 8,4 1016,1 90 -
Average21,6 16,9 1,6 Calm #122/186 0,6 1015,8 76 -
Low17,7 15,4 -   0,0 1013,4 48 -
Daily Tabular details for Tuesday Sep 17 2019
Time Temp. ( °C ) Dew pt. ( °C ) Wind ( km/h ) from Gust ( km/h ) Pressure ( hPa ) Humid.( % ) Rainrate ( cm )
00:00 20,8 16,0   Calm   1015,8 74 -
00:05 20,7 15,7   Calm   1015,8 73 -
00:10 20,7 15,7   Calm   1015,8 73 -
00:15 20,6 15,8   Calm   1015,8 74 -
00:20 20,5 15,7   Calm   1015,8 74 -
00:25 20,4 15,9   Calm   1015,8 75 -
00:30 20,4 15,8   Calm   1015,8 75 -
00:35 20,3 15,7   Calm   1015,8 75 -
00:40 20,2 15,8   Calm   1015,8 76 -
00:45 20,2 15,6   Calm   1015,5 75 -
00:50 20,1 15,7   Calm   1015,5 76 -
00:55 20,1 15,7   Calm   1015,8 76 -
01:00 20,1 15,7   Calm   1015,5 76 -
01:05 20,1 15,7   Calm   1015,8 76 -
01:10 20,0 15,7   Calm   1015,5 76 -
01:15 19,9 15,8   Calm   1015,5 77 -
01:20 19,9 16,0   Calm   1015,5 78 -
01:25 19,9 15,9   Calm   1015,5 78 -
01:30 19,8 16,1   Calm   1015,5 79 -
01:35 19,8 16,1   Calm   1015,5 79 -
01:40 19,7 16,0   Calm   1015,5 79 -
01:45 19,7 15,9   Calm   1015,5 79 -
01:50 19,6 15,9   Calm   1015,5 79 -
01:55 19,6 15,8   Calm   1015,5 79 -
02:00 19,5 15,8   Calm   1015,5 79 -
02:05 19,5 15,8   Calm   1015,5 79 -
02:10 19,5 15,6   Calm   1015,5 78 -
02:15 19,4 15,5   Calm   1015,1 78 -
02:20 19,4 15,5   Calm   1015,5 78 -
02:25 19,4 15,5   Calm   1015,1 78 -
02:30 19,4 15,7   Calm   1015,1 79 -
02:35 19,4 15,4   Calm   1015,1 78 -
02:40 19,4 15,7   Calm   1015,1 79 -
02:45 19,4 15,7   Calm   1015,1 79 -
02:50 19,3 15,8   Calm   1015,1 80 -
02:55 19,3 15,7   Calm   1015,1 80 -
03:00 19,2 15,9   Calm   1015,1 81 -
03:05 19,1 15,9   Calm   1015,1 82 -
03:10 19,1 16,1   Calm   1014,8 83 -
03:15 18,9 15,8   Calm   1014,8 82 -
03:20 18,9 15,6   Calm   1014,8 81 -
03:25 18,9 15,8   Calm   1014,8 82 -
03:30 18,9 15,6   Calm   1014,8 81 -
03:35 19,0 15,7   Calm   1015,1 81 -
03:40 19,0 15,7   Calm   1014,8 81 -
03:45 19,0 15,8   Calm   1014,8 82 -
03:50 19,0 15,8   Calm   1014,8 82 -
03:55 19,0 16,1   Calm   1014,8 83 -
04:00 18,9 16,2   Calm   1014,8 84 -
04:05 18,9 15,9   Calm   1014,4 83 -
04:10 18,9 15,9   Calm   1014,4 83 -
04:15 18,9 16,2   Calm   1014,4 84 -
04:20 18,9 16,2   Calm   1014,4 84 -
04:25 18,9 16,0   Calm   1014,4 83 -
04:30 19,0 15,8   Calm   1014,4 82 -
04:35 19,0 15,7   Calm   1014,4 81 -
04:40 19,0 15,7   Calm   1014,4 81 -
04:45 19,0 15,7   Calm   1014,4 81 -
04:50 18,9 15,8   Calm   1014,4 82 -
04:55 18,9 15,8   Calm   1014,4 82 -
05:00 18,9 15,7   Calm   1014,4 82 -
05:05 18,8 15,9   Calm   1014,4 83 -
05:10 18,8 15,7   Calm   1014,4 82 -
05:15 18,8 15,9   Calm   1014,4 83 -
05:20 18,8 15,7   Calm   1014,4 82 -
05:25 18,9 15,9   Calm   1014,8 83 -
05:30 18,9 15,9   Calm   1014,8 83 -
05:35 18,8 15,7   Calm   1014,8 82 -
05:40 18,8 15,9   Calm   1014,8 83 -
05:45 18,8 15,8   Calm   1014,8 83 -
05:50 18,7 15,6   Calm   1014,8 82 -
05:55 18,8 15,7   Calm   1014,8 82 -
06:00 18,8 15,5   Calm   1014,8 81 -
06:05 19,0 15,7   Calm   1014,8 81 -
06:10 19,1 15,6   Calm   1014,8 80 -
06:15 19,2 15,8   Calm   1014,8 81 -
06:20 19,2 16,3   Calm   1014,8 83 -
06:25 19,0 15,8   Calm   1014,8 82 -
06:30 18,8 15,9   Calm   1014,8 83 -
06:35 18,7 15,7   Calm   1014,8 83 -
06:40 18,6 15,8   Calm   1014,8 84 -
06:45 18,4 15,7   Calm   1015,1 84 -
06:50 18,4 15,6   Calm   1015,1 84 -
06:55 18,3 15,6   Calm   1015,1 84 -
07:00 18,3 15,7   Calm   1015,1 85 -
07:05 18,3 15,7   Calm   1015,1 85 -
07:10 18,4 15,9   Calm   1015,1 85 -
07:15 18,4 15,7   Calm   1015,5 84 -
07:20 18,4 15,8   Calm   1015,5 85 -
07:25 18,3 15,7   Calm   1015,5 85 -
07:30 18,2 15,7   Calm   1015,5 85 -
07:35 18,2 15,8   Calm   1015,5 86 -
07:40 18,1 15,7   Calm   1015,5 86 -
07:45 17,9 15,7   Calm   1015,5 87 -
07:50 17,8 15,7   Calm   1015,5 87 -
07:55 17,8 15,8   Calm   1015,5 88 -
08:00 17,8 15,8   Calm   1015,5 88 -
08:05 17,8 15,7   Calm   1015,5 87 -
08:10 17,9 15,7   Calm   1015,8 87 -
08:15 18,1 15,8   Calm   1015,5 87 -
08:20 18,1 15,7   Calm   1015,5 86 -
08:25 18,2 15,8 1,9 NNE   1015,5 86 -
08:30 18,3 16,1   Calm   1015,8 87 -
08:35 18,2 15,9   Calm   1015,8 87 -
08:40 18,0 16,0 1,9 NNE   1015,8 88 -
08:45 17,8 15,8   Calm   1015,8 88 -
08:50 17,7 15,9   Calm   1015,8 89 -
08:55 17,7 16,1   Calm   1015,8 90 -
09:00 17,8 16,1   Calm   1015,8 90 -
09:05 17,8 16,0   Calm   1015,8 89 -
09:10 17,9 16,1   Calm   1015,8 89 -
09:15 18,1 16,2   Calm   1015,8 89 -
09:20 18,2 16,3   Calm   1015,8 89 -
09:25 18,3 16,4   Calm   1015,8 89 -
09:30 18,3 16,5 1,6 NNE   1015,8 89 -
09:35 18,5 16,7   Calm   1015,8 89 -
09:40 18,6 16,6   Calm   1015,8 88 -
09:45 18,8 16,7   Calm   1015,8 88 -
09:50 19,0 16,9 1,9 NNE 0,5 1015,8 88 -
09:55 19,2 17,2   Calm   1015,8 88 -
10:00 19,5 17,3   Calm   1016,1 87 -
10:05 19,7 17,5 1,9 NNE 0,2 1016,1 87 -
10:10 19,9 17,7   Calm   1015,8 87 -
10:15 20,2 17,8   Calm   1015,8 86 -
10:20 20,4 17,8 1,9 NNE 0,6 1016,1 85 -
10:25 20,7 18,1   Calm   1016,1 85 -
10:30 21,0 18,2 1,6 NNE   1016,1 84 -
10:35 21,3 18,3   Calm   1015,8 83 -
10:40 21,7 18,7   Calm   1016,1 83 -
10:45 22,2 18,8 1,9 NNE 0,2 1016,1 81 -
10:50 22,7 18,7 1,9 NNE 0,5 1015,8 78 -
10:55 23,3 18,6 5,6 NNE 1,8 1015,8 75 -
11:00 23,7 18,8 3,7 North 2,6 1015,8 74 -
11:05 24,1 18,9 8,0 North 3,7 1015,8 73 -
11:10 24,4 19,2 1,9 North 1,0 1015,8 73 -
11:15 24,7 19,1 6,4 North 2,6 1015,8 71 -
11:20 24,9 18,8 5,6 North 0,8 1015,8 69 -
11:25 25,2 19,1 1,9 North 0,8 1015,8 69 -
11:30 25,4 19,1 3,2 North 0,8 1015,8 68 -
11:35 25,6 19,4 1,9 NNE 0,6 1015,8 69 -
11:40 25,7 19,4 1,9 North 0,8 1015,8 68 -
11:45 25,8 19,4 3,7 North 1,6 1015,8 68 -
11:50 25,8 19,4 5,6 North 1,1 1015,8 68 -
11:55 25,8 19,7 3,7 NW 0,5 1015,5 69 -
12:00 25,9 19,6 7,4 NW 3,4 1015,5 68 -
12:05 26,1 19,9 3,7 NW 1,4 1015,5 69 -
12:10 26,2 19,6 3,7 NW 1,0 1015,5 67 -
12:15 26,3 19,9 3,7 WNW 0,6 1015,5 68 -
12:20 26,4 19,6 4,8 WNW 0,3 1015,1 66 -
12:25 26,6 19,4 5,6 NW 2,4 1015,1 65 -
12:30 26,7 20,1 1,9 North 0,3 1015,1 67 -
12:35 26,9 20,3 1,6 North   1015,1 67 -
12:40 27,2 20,0 1,9 North 0,6 1014,8 65 -
12:45 27,4 19,8 8,0 North 3,5 1014,8 63 -
12:50 27,4 19,8 1,9 North 0,2 1014,8 63 -
12:55 27,7 19,4 3,7 North 1,0 1014,8 61 -
13:00 27,9 19,4 3,7 North 0,3 1014,8 60 -
13:05 28,2 19,4 1,9 NNE 0,8 1014,8 59 -
13:10 28,2 19,7 6,4 NNE 3,1 1014,8 60 -
13:15 28,0 18,9 5,6 North 2,9 1014,8 58 -
13:20 27,9 18,9 1,9 North 0,2 1014,4 58 -
13:25 28,1 19,8 3,2 North 0,8 1014,4 61 -
13:30 28,1 18,8 3,7 North 2,4 1014,4 57 -
13:35 27,9 18,6 5,6 North 3,9 1014,4 57 -
13:40 27,8 18,2 3,7 North 0,8 1014,4 56 -
13:45 27,9 18,6 3,7 North 1,0 1014,4 57 -
13:50 28,2 19,2 3,7 NNW 1,9 1014,1 58 -
13:55 28,4 18,2 7,4 NNW 4,2 1014,1 54 -
14:00 28,5 18,6 11,1 North 4,0 1014,1 55 -
14:05 28,7 18,2 3,7 NW 1,0 1014,1 53 -
14:10 28,8 18,3 6,4 West 4,2 1014,1 53 -
14:15 28,9 18,7 8,0 NW 3,1 1014,1 54 -
14:20 28,9 17,8 5,6 NNW 3,1 1014,1 51 -
14:25 29,1 18,8 5,6 North 2,4 1014,1 54 -
14:30 29,0 17,5 6,4 North 2,6 1014,1 50 -
14:35 29,0 17,8 5,6 NNW 3,2 1013,8 51 -
14:40 29,2 18,6 5,6 NNW 3,1 1013,8 53 -
14:45 29,2 18,0 13,0 North 1,1 1013,8 51 -
14:50 29,3 17,8 9,7 North 3,7 1013,8 50 -
14:55 29,2 18,3 8,0 North 3,4 1013,8 52 -
15:00 29,3 17,8 6,4 NNW 4,0 1013,4 50 -
15:05 29,5 17,3 5,6 NNW 4,2 1013,4 48 -
15:10 29,6 18,3 5,6 NW 3,2 1013,4 51 -
15:15 29,4 17,6 5,6 NNW 3,1 1013,4 49 -
15:20 29,4 17,3 14,8 North 8,4 1013,4 48 -
15:25 29,4 17,9 6,4 NNW 4,3 1013,4 50 -

Download your copy of this data-set  here

Our weather-data as stored at Weather Underground. Script developed by Jim McMurry. Adapted for the template by Leuven-Template.eu

You find our weather info also at:

Weather Underground

AWEKAS

Citizen Weather Observer Program (CWOP)

HAMweather, WeatherForYou, PWS Weather

Equipment we use:

Weather-station
Davis VP2

Weather-program
Weather Display

Weather-server
HP ProDesk 600 G1

Provider
1&1 IONOS

Davis VP2

Weather Display

HP ProDesk 600 G1

1&1 IONOS